Погода в Богородске

Россия / Пермский край     56°41′43″N   56°56′14″E
темп.,
°C
ветер,
м/с
пор.,
м/с
влажн.,
%
обл.,
%
осадки,
мм/ч
давл.,
гПа
погр.,
м
28 января, чт
чт2823:00−7ююз61490100 0.0 1026399
02:00−7ююз71590100 0.0 1025429
05:00−7ююз71689100 0.0 1024479
08:00−6ююз81687100 0.0 1022503
11:00−6ююз81585100 0.0 1022500
14:00−5ююз81487100 0.0 1022501
17:00−6ююз71488100 0.0 1022483
20:00−7ююз51191100 0.0 1022352
29 января, пт
пт2923:00−8ююз51192100 0.0 1022318
02:00−8ююз41091100 0.0 1022293
05:00−8ю3992100 0.0 1022216
08:00−10ю3489100 0.0 102166
11:00−7ююв3886100 0.0 1021201
14:00−2ю3881100 0.0 1019252
17:00−1юв3481100 0.0 101875
20:00−3юв4473100 0.0 101670
30 января, сб
сб3023:00−4юв4673100 0.0 101580
02:00−2юв3480100 0.0 101479
05:00−4ююв2385100 0.0 101337
08:00−5ююв3696100 0.1 1011173
11:00−3ююз4996100 1.3 1011561
14:00−3ю4795100 1.0 1011528
17:00−4ю4895100 1.2 1011422
20:00−5ююз4109591 0.2 1012438
31 января, вс
вс3123:00−4ю5109593 0.3 1012418
02:00−4ю6139595 0.2 1012542
05:00−5ююз6129598 0.9 1012593
08:00−4ююз61093100 0.3 1014541
11:00−6юз5109597 0.3 1015458
14:00−4ююз589399 0.1 1016447
17:00−6ю369595 0.1 1018154
20:00−3ю499497 0.0 1018430
1 февраля, пн
пн123:00−4ю589799 0.1 1017411
02:00−2ююв51093100 0.0 1015510
05:00−5юв61288100 0.0 1012269
08:00−3ю61683100 0.1 1008910
11:00−3ю81594100 2.9 1007941
14:00−2ююз91594100 0.6 10071189
17:00−4юз81390100 1.2 1008903
20:00−6зюз81493100 0.4 1011935